ftp.onem2m.org - /Meetings/REQ/20150720_REQ18_Philadelphia/


[To Parent Directory]

9/4/2015 11:41 AM 208384 REQ-2015-0589R01-Usecase_on_vehicle_data_wipe_service.DOC
9/4/2015 11:41 AM 230125 REQ-2015-0589R03-Usecase_on_vehicle_data_wipe_service.ZIP
9/4/2015 11:41 AM 181760 REQ-2015-0589R04-Usecase_on_vehicle_data_wipe_service.DOC
9/4/2015 11:41 AM 140800 REQ-2015-0590-SEC_related_CR_to_TS-0002_on_Trust_transfer.DOC
9/4/2015 11:41 AM 141312 REQ-2015-0590R01-SEC_related_CR_to_TS-0002_on_Trust_transfer.DOC
9/4/2015 11:41 AM 6046727 REQ-2015-0590R02-SEC_related_CR_to_TS-0002_on_Trust_transfer.ZIP
9/4/2015 11:41 AM 140288 REQ-2015-0591-CR_to_TS-0002_on_dynamic_Verification_of_GW_Processing_Integrity.DOC
9/4/2015 11:41 AM 3786014 REQ-2015-0591R01-CR_to_TS-0002_on_dynamic_Verification_of_GW_Processing_Integrity.ZIP
9/4/2015 11:41 AM 6046727 REQ-2015-0591R02-CR_to_TS-0002_on_dynamic_Verification_of_GW_Processing_Integrity.ZIP
9/4/2015 11:40 AM 144896 REQ-2015-0591R03-CR_to_TS-0002_on_dynamic_Verification_of_GW_Processing_Integrity.DOC
9/4/2015 11:40 AM 144896 REQ-2015-0591R04-CR_to_TS-0002_on_dynamic_Verification_of_GW_Processing_Integrity.DOC
9/4/2015 11:40 AM 92160 REQ-2015-0592-Add_App-ID_Abbreviations_and_Definitions.DOC
9/4/2015 11:40 AM 105984 REQ-2015-0592R01-Add_App-ID_Abbreviations_and_Definitions.DOC
9/4/2015 11:40 AM 106496 REQ-2015-0592R02-Add_App-ID_Abbreviations_and_Definitions.DOC
9/4/2015 11:40 AM 241664 REQ-2015-0595-External_Event_Trigger_Requirements.DOC
9/4/2015 11:40 AM 90112 REQ-2015-0595R01-External_Event_Trigger_Requirements.DOC
9/4/2015 11:40 AM 135680 REQ-2015-0595R02-External_Event_Trigger_Requirements.DOC
9/4/2015 11:40 AM 135680 REQ-2015-0595R03-External_Event_Trigger_Requirements.DOC
9/4/2015 11:40 AM 136704 REQ-2015-0595R04-External_Event_Trigger_Requirements.DOC
9/4/2015 11:40 AM 378368 REQ-2015-0596-Event_Trigger_Use_Case_Revise.DOC
9/4/2015 11:40 AM 181760 REQ-2015-0597-Use_Case_Anycast_Somecast.DOC
9/4/2015 11:40 AM 299520 REQ-2015-0597R01-Use_Case_Anycast_Somecast.DOC
9/4/2015 11:40 AM 310272 REQ-2015-0597R02-Use_Case_Anycast_Somecast.DOC
9/4/2015 11:40 AM 310784 REQ-2015-0597R03-Use_Case_Anycast_Somecast.DOC
9/4/2015 11:39 AM 93184 REQ-2015-0598-TS-0002_anycast_somecast_requirements.DOC
9/4/2015 11:39 AM 93696 REQ-2015-0598R01-TS-0002_anycast_somecast_requirements.DOC
9/4/2015 11:39 AM 93696 REQ-2015-0598R02-TS-0002_anycast_somecast_requirements.DOC
9/4/2015 11:39 AM 288768 REQ-2015-0599-Sensor_Data_Quality.DOC
9/4/2015 11:39 AM 290816 REQ-2015-0599R01-Sensor_Data_Quality.DOC
9/4/2015 11:39 AM 621568 REQ-2015-0599R02-Sensor_Data_Quality.DOC
9/4/2015 11:39 AM 621568 REQ-2015-0599R03-Sensor_Data_Quality.DOC
9/4/2015 11:39 AM 642560 REQ-2015-0600-Real_Time_Data_Collection.DOC
9/4/2015 11:39 AM 643072 REQ-2015-0600R01-Real_Time_Data_Collection.DOC
9/4/2015 11:39 AM 643072 REQ-2015-0600R02-Real_Time_Data_Collection.DOC
9/4/2015 11:39 AM 92160 REQ-2015-0601-Requirement_of_supporting_Real_Time_Data_Collection.DOC
9/4/2015 11:39 AM 93184 REQ-2015-0601R01-Requirement_of_supporting_Real_Time_Data_Collection.DOC
9/4/2015 11:39 AM 92160 REQ-2015-0602-Requirement_of_supporting_Quality_of_Sensor_Data.DOC
9/4/2015 11:39 AM 92672 REQ-2015-0602R01-Requirement_of_supporting_Quality_of_Sensor_Data.DOC
9/4/2015 11:39 AM 186880 REQ-2015-0603-Data_encryption_in_industrial_domain.DOC
9/4/2015 11:39 AM 189952 REQ-2015-0603R01-Data_encryption_in_industrial_domain.DOC
9/4/2015 11:39 AM 300032 REQ-2015-0603R02-Data_encryption_in_industrial_domain.DOC
9/4/2015 11:39 AM 298496 REQ-2015-0603R03-Data_encryption_in_industrial_domain.DOC
9/4/2015 11:39 AM 92672 REQ-2015-0604-Requirement_of_supporting_data_encryption_in_industrial_domain.DOC
9/4/2015 11:38 AM 93696 REQ-2015-0604R01-Requirement_of_supporting_data_encryption_in_industrial_domain.DOC
9/4/2015 11:38 AM 95232 REQ-2015-0604R02-Requirement_of_supporting_data_encryption_in_industrial_domain.DOC
9/4/2015 11:38 AM 102912 REQ-2015-0605R01-TS-0002_E2E_integrity_confidentiality.DOC
9/4/2015 11:38 AM 104960 REQ-2015-0605R02-TS-0002_E2E_integrity_confidentiality.DOC
9/4/2015 11:38 AM 105472 REQ-2015-0605R03-TS-0002_E2E_integrity_confidentiality.DOC
9/4/2015 11:38 AM 106496 REQ-2015-0605R04-TS-0002_E2E_integrity_confidentiality.DOC
9/4/2015 11:38 AM 369664 REQ-2015-0606-QoS_QoI_monitoring_in_industrial_domain.DOC
9/4/2015 11:38 AM 425939 REQ-2015-0606R01-QoS_QoI_monitoring_in_industrial_domain.DOCX
9/4/2015 11:38 AM 355328 REQ-2015-0607-Use_Case_for_Agricultural_Drone.DOC
9/4/2015 11:38 AM 355840 REQ-2015-0607R01-Use_Case_for_Agricultural_Drone.DOC
9/4/2015 11:38 AM 91648 REQ-2015-0608-Requirement_of_supporting_device_caching_in_home_domain.DOC
9/4/2015 11:38 AM 91648 REQ-2015-0609-Requirement_of_supporting_device_pairing_in_home_domain.DOC
9/4/2015 11:38 AM 97280 REQ-2015-0610-REQ#18.DOC
9/4/2015 11:38 AM 97280 REQ-2015-0611-Requirements_to_Support_Vehicle_Data_Service.DOC
9/4/2015 11:38 AM 436098 REQ-2015-0611R01-Requirements_to_Support_Vehicle_Data_Service.ZIP
9/4/2015 11:38 AM 102400 REQ-2015-0611R02-Requirements_to_Support_Vehicle_Data_Service.DOC
9/4/2015 11:38 AM 116867 REQ-2015-0612-WG1_REQ_Document_Allocation.XLSX
9/4/2015 11:38 AM 117377 REQ-2015-0612R01-WG1_REQ_Document_Allocation.XLSX
9/4/2015 11:38 AM 118264 REQ-2015-0612R02-WG1_REQ_Document_Allocation.XLSX
9/4/2015 11:37 AM 121564 REQ-2015-0612R03-WG1_REQ_Document_Allocation.XLSX
9/4/2015 11:37 AM 124370 REQ-2015-0612R04-WG1_REQ_Document_Allocation.XLSX
9/4/2015 11:37 AM 126685 REQ-2015-0612R05-WG1_REQ_Document_Allocation.XLSX
9/4/2015 11:37 AM 127266 REQ-2015-0612R06-WG1_REQ_Document_Allocation.XLSX
9/4/2015 11:37 AM 128022 REQ-2015-0612R07-WG1_REQ_Document_Allocation.XLSX
9/4/2015 11:37 AM 131893 REQ-2015-0612R08-WG1_REQ_Document_Allocation.XLSX
9/4/2015 11:37 AM 83968 REQ-2015-0613-WG1_REQ_Agenda.DOC
9/4/2015 11:37 AM 168545 REQ-2015-0614-AppID_Comments.PDF
9/4/2015 11:37 AM 87552 REQ-2015-0615-AppID_CR.DOC
9/4/2015 11:37 AM 87552 REQ-2015-0616-AppID_CR.DOC
9/4/2015 11:37 AM 115200 REQ-2015-0617-MNT_CR_TS-0002_Provisioning_Clarification_(R1).DOC
9/4/2015 11:37 AM 137728 REQ-2015-0618-MNT_CR_TS-0002_Provisioning_Clarification_(R2).DOC
9/4/2015 11:37 AM 172544 REQ-2015-0619-Terms_And_Conditions_Markup_Language_for_Privacy_Policy_Manager.DOC
9/4/2015 11:37 AM 172032 REQ-2015-0619R01-Terms_And_Conditions_Markup_Language_for_Privacy_Policy_Manager.DOC
9/4/2015 11:37 AM 173056 REQ-2015-0619R02-Terms_And_Conditions_Markup_Language_for_Privacy_Policy_Manager.DOC
9/4/2015 11:37 AM 93184 REQ-2015-0620-Requirements_to_Support_Vehicle_Data_Wipe_Service.DOC
9/4/2015 11:37 AM 96256 REQ-2015-0621-CR_TS-0002_add_requirements_on_Privacy_Profiles_from_REQ-2015-0619R01.DOC
9/4/2015 11:37 AM 96768 REQ-2015-0621R01-CR_TS-0002_add_requirements_on_Privacy_Profiles_from_REQ-2015-0619R01.DOC
9/4/2015 11:37 AM 176640 REQ-2015-0622-Data_Monitoring.DOC
9/4/2015 11:37 AM 171008 REQ-2015-0622R01-Data_Monitoring.DOC
9/4/2015 11:37 AM 179712 REQ-2015-0622R02-Data_Monitoring.DOC
9/4/2015 11:36 AM 93184 REQ-2015-0623-Security_Administration_Functionality.DOC
9/4/2015 11:36 AM 98304 REQ-2015-0623R01-Security_Administration_Functionality.DOC
9/4/2015 11:36 AM 47628 REQ-2015-0624-Requirement_for_OIC_interworking.DOCX
9/4/2015 11:36 AM 47653 REQ-2015-0624R01-Requirement_for_OIC_interworking.DOCX
9/4/2015 11:36 AM 194560 REQ-2015-0625-Change_P2P_to_AE_to_AE_in_OSR-003_Rel1-CR.DOC
9/4/2015 11:36 AM 194560 REQ-2015-0625R01-Change_P2P_to_AE_to_AE_in_OSR-003_Rel1-CR.DOC
9/4/2015 11:36 AM 207872 REQ-2015-0626-Change_P2P_to_AE_to_AE_in_OSR-003_Rel2MirrorCR_doc.DOC
9/4/2015 11:36 AM 207872 REQ-2015-0626R01-Change_P2P_to_AE_to_AE_in_OSR-003_Rel2MirrorCR_doc.DOC
9/4/2015 11:36 AM 93696 REQ-2015-0627-TS-0002_E2E_security_delegation.DOC
9/4/2015 11:36 AM 93696 REQ-2015-0627R01-TS-0002_E2E_security_delegation.DOC
9/4/2015 11:36 AM 94720 REQ-2015-0627R02-TS-0002_E2E_security_delegation.DOC
9/4/2015 11:36 AM 68608 REQ-2015-0628-Security_Requirements_for_Dynamic_Authorization.DOC
9/4/2015 11:36 AM 70656 REQ-2015-0628R01-Security_Requirements_for_Dynamic_Authorization.DOC
9/4/2015 11:36 AM 92672 REQ-2015-0629-Requirement_for_QoS_QoI_monitoring_in_industrial_domain.DOC
9/4/2015 11:36 AM 92672 REQ-2015-0630-Requirement_for_Agricultural_Drone_Use_case.DOC
9/4/2015 11:36 AM 90112 REQ-2015-0631-Requirements_for_information_model.DOC
9/4/2015 11:36 AM 94720 REQ-2015-0631R01-Requirements_for_information_model.DOC
9/4/2015 11:36 AM 95744 REQ-2015-0631R02-Requirements_for_information_model.DOC
9/4/2015 11:36 AM 206848 REQ-2015-0632-REQ18_Minutes.DOC